Regional Weather Roundup
Issued by NWS

Home | Current Version | Previous Version | Text Only | Print | Product List | Glossary On
Versions: 1 2 3 4 5 6 7 8 9 10 11 12 13 14 15 16 17 18 19 20 21 22 23 24 25 26 27 28 29 30 31 32 33 34 35 36 37 38 39 40 41 42 43 44 45 46 47 48 49 50
000
ASUS45 KTFX 262110
RWRMT
MONTANA REGIONAL WEATHER ROUNDUP
NATIONAL WEATHER SERVICE GREAT FALLS MT
300 PM MDT THU APR 26 2018

NOTE: "FAIR" INDICATES FEW OR NO CLOUDS BELOW 12000 FEET WITH NO
SIGNIFICANT WEATHER AND/OR OBSTRUCTIONS TO VISIBILITY.

MTZ001>007-043-262200-
WEST OF THE DIVIDE

CITY           SKY/WX    TMP DP  RH WIND       PRES   REMARKS
KALISPELL      FAIR      71  28  20 VRB6      30.15F
MISSOULA       FAIR      72  34  24 VRB3      30.15F
BUTTE          FAIR      65  27  23 VRB5      30.21F
MULLAN PASS    FAIR      60  18  19 VRB3      30.23F
ANACONDA         N/A     68  19  15 NE5       30.18F
DEER LODGE       N/A     68  25  19 S3        30.20F
HAMILTON         N/A     70  30  23 MISG      30.15F
$$

MTZ008-052>055-262200-
SOUTHWEST MONTANA

CITY           SKY/WX    TMP DP  RH WIND       PRES   REMARKS
BOZEMAN        FAIR      64  20  18 VRB3      30.20F
DILLON         FAIR      63  28  26 CALM      30.20F
ENNIS          FAIR      63  21  20 CALM      30.25F
W YELLOWSTONE  FAIR      57   1  10 CALM      30.26F
THREE FORKS      N/A     65  29  26 NE3       30.17F
TWIN BRIDGES     N/A     65  27  24 SE1       30.17F
$$

MTZ009-010-012-014-046-048-049-054-262200-
EAST SLOPES AND CENTRAL MONTANA

CITY           SKY/WX    TMP DP  RH WIND       PRES   REMARKS
CUT BANK       FAIR      72  19  13 MISG      30.13S
GREAT FALLS    FAIR      70  25  18 SW9       30.14F
MALMSTROM AFB  SUNNY     71  23  16 W6        30.14F
HELENA         FAIR      69  32  25 NE9       30.17F
AUGUSTA        FAIR      67  23  19 CALM      30.15F
CHOTEAU          N/A     72  19  14 VRB6      30.15F
RAYNESFORD     FAIR      70  20  15 NW6       30.14F
WHITE SULPHUR    N/A     63  28  27 S8        30.18F
$$

MTZ011-013-016-021-045-047-050-051-262200-
NORTH CENTRAL MONTANA

CITY           SKY/WX    TMP DP  RH WIND       PRES   REMARKS
HAVRE          FAIR      72  28  19 W15       30.09F
LEWISTOWN      FAIR      67  18  15 W10G20    30.16F
N BAR RANCH    FAIR      66  14  13 NW13G20   30.19F
CHINOOK          N/A     72  27  18 MISG      30.09F
GEYSER         FAIR      69  23  17 CALM      30.14F
STANFORD       FAIR      67  21  17 N5        30.15F
$$

MTZ017>020-022>027-061-062-262200-
NORTHEAST MONTANA

CITY           SKY/WX    TMP DP  RH WIND       PRES   REMARKS
GLASGOW        FAIR      70  29  21 W15       30.09F
GLENDIVE       FAIR      66  28  24 W17G24    30.12F
JORDAN           N/A     66  31  27 W7        30.13F
MALTA          SUNNY     68  34  28 W10       30.07F
SIDNEY         FAIR      67  27  22 NW17G30   30.07F
WOLF POINT     FAIR      71  25  17 W17G31    30.09F
PLENTYWOOD       N/A     66  23  19 MISG      30.02F
POPLAR           N/A     66  25  20 MISG      30.08F
SCOBEY           N/A     68  25  20 W17       30.04F
$$

MTZ028>42-056>058-262200-
SOUTHCENTRAL AND SOUTHEAST MONTANA

CITY           SKY/WX    TMP DP  RH WIND       PRES   REMARKS
BAKER          FAIR      62  30  29 W18G30    30.15F
BILLINGS       FAIR      66  26  22 SW9       30.18F
LIVINGSTON     FAIR      67  26  21 NW5       30.19F
MILES CITY     FAIR      65  33  30 W12G22    30.15F
BIG TIMBER     SUNNY     66  25  20 SW13      30.19F
EKALAKA          N/A     60  26  27 W16       30.14F
FORSYTH          N/A     63  30  29 W8        30.15F
LAUREL           N/A     66  23  19 S8G14     30.19F
$$

REGIONAL REPORTS...DAKOTAS

CITY           SKY/WX    TMP DP  RH WIND       PRES   REMARKS
WILLISTON      FAIR      69  27  20 W17G31    30.04F
MINOT          FAIR      69  25  19 W25G32    29.98F
DICKINSON      FAIR      65  26  23 W18G26    30.07F
BEACH          FAIR      63  21  20 W20G28    30.14F
CROSBY         FAIR      68  25  19 W26G35    30.00F
TIOGA          FAIR      66  25  20 W22G36    30.03F
WATFORD CITY   FAIR      66  27  22 W18       30.05F
BISMARCK       FAIR      67  24  19 NW16G22   30.06F
GRAND FORKS    FAIR      60  32  34 NW20G25   29.99F
FARGO          FAIR      59  30  33 NW18G30   30.02F
BUFFALO SD       N/A     65  26  23 NW17G26   30.08F
RAPID CITY     FAIR      63  30  28 N8G22     30.16F
$$

REGIONAL REPORTS...WYOMING/IDAHO/WASHINGTON

CITY           SKY/WX    TMP DP  RH WIND       PRES   REMARKS
GILLETTE       FAIR      60  29  30 MISG      30.21F
SHERIDAN       FAIR      64  31  28 VRB6      30.20F
BUFFALO WY     FAIR      61  28  28 VRB3      30.23F
CODY           FAIR      61  21  21 VRB3      30.24F
YELLOWSTONE LA   N/A     44  15  31 VRB5      30.34F
IDAHO FALLS    FAIR      66  10  11 N5        30.21F
SALMON         FAIR      69  27  20 NW5       30.16F
BOISE          FAIR      79  32  18 S12       30.08F
SPOKANE        FAIR      72  27  18 VRB3      30.11F
$$

REGIONAL REPORTS...ALBERTA

CITY           SKY/WX    TMP DP  RH WIND       PRES   REMARKS
CALGARY        MOSUNNY   68  27  21 CALM      30.12F
CARDSTON         N/A     72  23  16 W5          N/A
EDMONTON       SUNNY     64  28  25 N7        30.10S
FORT MCMURRAY  SUNNY     61  18  18 NW16G30   30.09R
HIGH LEVEL     MOSUNNY   63  28  27 NW10G17   30.06F
LETHBRIDGE     PTSUNNY   72  23  16 VRB6      30.11F
LLOYDMINSTER   MOSUNNY   64  27  24 N17G25    30.04R
MEDICINE HAT   MOSUNNY   73  28  19 W15G22    30.07F
MILK RIVER       N/A     73  23  15 NW5         N/A
ONEFOUR          N/A     72  27  18 NW15G22     N/A
PEACE RIVER    CLOUDY    63  27  25 W5        30.11F
PINCHER CREEK  SUNNY     72  27  18 W13G18    30.11F
WATERTON GATE    N/A     68  23  18 SW14G21     N/A
$$

REGIONAL REPORTS...SASKATCHEWAN

CITY           SKY/WX    TMP DP  RH WIND       PRES   REMARKS
CORONACH         N/A     70  25  18 W20G25      N/A
CYPRESS HILLS    N/A     66  18  15 NW12G20     N/A
ESTEVAN        MOSUNNY   68  25  19 W29G40    29.97F
MOOSE JAW        N/A     72  21  15 NW23G30     N/A
PRINCE ALBERT  MOSUNNY   64  23  20 N25G35    29.93S
REGINA         MOSUNNY   70  27  19 NW22G35   29.94F
ROCKGLEN         N/A     66  25  20 NW17G28     N/A
SASKATOON      MOSUNNY   70  28  21 W26G39    29.95F
SWIFT CURRENT  SUNNY     72  28  20 NW22G31   30.01F
VAL MARIE        N/A     70  27  19 W14G22      N/A
$$



USA.gov is the U.S. government's official web portal to all federal, state and local government web resources and services.